SAS171 ESSA-ESGG

Flight info

Callsign SAS171
Flight time 0h 49m
Altitude 32000
Route ARS N623 BEDLA N866 LAPSI DCT MOXAM
Aircraft MD82/M-SDFGIRWY/S

Departure

Time 2026-05-05 06:38
Airport Stockholm-Arlanda Airport (ESSA)

Arrival

Time 2026-05-05 07:27
Airport Göteborg Landvetter Airport (ESGG)
Time Latitude Longitude Altitude Speed Heading
2026-05-05 06:08 59.65356 17.93525 112 ft 0 kts 75°
2026-05-05 06:30 59.65356 17.93522 112 ft 2 kts 75°
2026-05-05 06:30 59.65350 17.93480 110 ft 2 kts 76°
2026-05-05 06:30 59.65342 17.93437 109 ft 4 kts 51°
2026-05-05 06:30 59.65325 17.93414 110 ft 4 kts
2026-05-05 06:31 59.65311 17.93416 110 ft 0 kts 346°
2026-05-05 06:33 59.65333 17.93405 101 ft 6 kts 346°
2026-05-05 06:33 59.65386 17.93380 112 ft 10 kts 346°
2026-05-05 06:33 59.65458 17.93350 112 ft 11 kts 356°
2026-05-05 06:33 59.65523 17.93276 112 ft 13 kts 281°
2026-05-05 06:34 59.65502 17.93070 110 ft 16 kts 253°
2026-05-05 06:34 59.65467 17.92856 112 ft 16 kts 250°
2026-05-05 06:34 59.65414 17.92658 112 ft 17 kts 234°
2026-05-05 06:34 59.65333 17.92501 111 ft 17 kts 216°
2026-05-05 06:35 59.65227 17.92397 112 ft 19 kts 197°
2026-05-05 06:35 59.65079 17.92339 112 ft 22 kts 190°
2026-05-05 06:35 59.64926 17.92284 112 ft 22 kts 189°
2026-05-05 06:35 59.64774 17.92229 112 ft 22 kts 190°
2026-05-05 06:36 59.64626 17.92175 113 ft 22 kts 190°
2026-05-05 06:36 59.64478 17.92122 114 ft 21 kts 189°
2026-05-05 06:36 59.64405 17.91970 111 ft 16 kts 262°
2026-05-05 06:36 59.64418 17.91740 109 ft 18 kts 281°
2026-05-05 06:37 59.64495 17.91604 110 ft 16 kts
2026-05-05 06:37 59.64634 17.91652 111 ft 34 kts 10°
2026-05-05 06:37 59.65069 17.91807 105 ft 96 kts 11°
2026-05-05 06:37 59.65927 17.92112 116 ft 152 kts
2026-05-05 06:38 59.67023 17.92583 599 ft 161 kts
2026-05-05 06:38 59.68101 17.92961 1480 ft 154 kts 359°
2026-05-05 06:38 59.69138 17.92557 2157 ft 155 kts 328°
2026-05-05 06:38 59.70053 17.91384 2863 ft 158 kts 320°
2026-05-05 06:39 59.70847 17.89847 3486 ft 163 kts 305°
2026-05-05 06:39 59.71358 17.87815 4103 ft 172 kts 283°
2026-05-05 06:39 59.71350 17.85297 4518 ft 196 kts 253°
2026-05-05 06:39 59.70722 17.82743 5038 ft 217 kts 244°
2026-05-05 06:40 59.69918 17.80080 5604 ft 233 kts 241°
2026-05-05 06:40 59.69002 17.77302 6211 ft 247 kts 239°
2026-05-05 06:40 59.68018 17.74452 6915 ft 254 kts 238°
2026-05-05 06:40 59.66998 17.71566 7738 ft 255 kts 239°
2026-05-05 06:41 59.66002 17.68701 8563 ft 256 kts 239°
2026-05-05 06:41 59.65014 17.65830 9727 ft 240 kts 240°
2026-05-05 06:41 59.64130 17.63210 10989 ft 225 kts 242°
2026-05-05 06:41 59.63244 17.60510 11266 ft 245 kts 242°
2026-05-05 06:42 59.62287 17.57549 11439 ft 265 kts 242°
2026-05-05 06:42 59.61416 17.54234 11614 ft 279 kts 257°
2026-05-05 06:42 59.61178 17.50385 11854 ft 293 kts 266°
2026-05-05 06:42 59.61097 17.46323 12472 ft 296 kts 267°
2026-05-05 06:43 59.61017 17.42260 13317 ft 293 kts 266°
2026-05-05 06:43 59.60938 17.38258 14070 ft 291 kts 266°
2026-05-05 06:43 59.60872 17.34236 14625 ft 295 kts 268°
2026-05-05 06:43 59.60932 17.30160 15142 ft 299 kts 270°
2026-05-05 06:44 59.61053 17.26092 15596 ft 303 kts 270°
2026-05-05 06:44 59.61183 17.21888 16055 ft 308 kts 270°
2026-05-05 06:44 59.61302 17.17628 16698 ft 309 kts 270°
2026-05-05 06:44 59.61409 17.13372 17352 ft 309 kts 269°
2026-05-05 06:45 59.61503 17.09109 17889 ft 312 kts 269°
2026-05-05 06:45 59.61585 17.04855 18373 ft 315 kts 269°
2026-05-05 06:45 59.61660 17.00494 18845 ft 318 kts 269°
2026-05-05 06:45 59.61732 16.96112 19328 ft 320 kts 269°
2026-05-05 06:46 59.61805 16.91707 19824 ft 322 kts 269°
2026-05-05 06:46 59.61876 16.87259 20311 ft 325 kts 269°
2026-05-05 06:46 59.61950 16.82768 20793 ft 327 kts 269°
2026-05-05 06:46 59.62024 16.78321 21268 ft 330 kts 269°
2026-05-05 06:47 59.62103 16.73766 21728 ft 333 kts 269°
2026-05-05 06:47 59.62183 16.69181 22200 ft 335 kts 269°
2026-05-05 06:47 59.62265 16.64543 22682 ft 337 kts 269°
2026-05-05 06:47 59.62349 16.59886 23151 ft 340 kts 269°
2026-05-05 06:48 59.62432 16.55257 23532 ft 343 kts 269°
2026-05-05 06:48 59.62511 16.50521 23971 ft 344 kts 268°
2026-05-05 06:48 59.62569 16.45784 24452 ft 344 kts 268°
2026-05-05 06:48 59.62621 16.41034 24822 ft 346 kts 268°
2026-05-05 06:49 59.62678 16.36253 25169 ft 350 kts 268°
2026-05-05 06:49 59.62744 16.31484 25526 ft 352 kts 268°
2026-05-05 06:49 59.62816 16.26611 25908 ft 354 kts 267°
2026-05-05 06:49 59.62473 16.21834 26242 ft 353 kts 249°
2026-05-05 06:50 59.61272 16.17552 26648 ft 357 kts 238°
2026-05-05 06:50 59.59847 16.13569 26983 ft 361 kts 237°
2026-05-05 06:50 59.58361 16.09523 27301 ft 364 kts 237°
2026-05-05 06:50 59.56860 16.05473 27683 ft 366 kts 237°
2026-05-05 06:51 59.55353 16.01414 28066 ft 367 kts 237°
2026-05-05 06:51 59.53853 15.97332 28572 ft 366 kts 237°
2026-05-05 06:51 59.52401 15.93328 29131 ft 363 kts 238°
2026-05-05 06:51 59.50940 15.89271 29660 ft 360 kts 238°
2026-05-05 06:52 59.49488 15.85236 30065 ft 359 kts 238°
2026-05-05 06:52 59.48056 15.81248 30301 ft 361 kts 238°
2026-05-05 06:52 59.46601 15.77197 30586 ft 362 kts 237°
2026-05-05 06:52 59.45138 15.73137 30967 ft 361 kts 237°
2026-05-05 06:53 59.43701 15.69159 31384 ft 359 kts 238°
2026-05-05 06:53 59.42248 15.65143 31624 ft 362 kts 237°
2026-05-05 06:53 59.40780 15.61086 31734 ft 365 kts 237°
2026-05-05 06:54 59.37776 15.52796 31802 ft 378 kts 237°
2026-05-05 06:54 59.34709 15.44365 31828 ft 381 kts 237°
2026-05-05 06:55 59.31646 15.35982 31832 ft 378 kts 237°
2026-05-05 06:55 59.28585 15.27614 31831 ft 377 kts 237°
2026-05-05 06:56 59.25535 15.19319 31810 ft 380 kts 237°
2026-05-05 06:56 59.22430 15.10974 31825 ft 382 kts 237°
2026-05-05 06:57 59.19316 15.02584 31827 ft 380 kts 237°
2026-05-05 06:57 59.16191 14.94268 31853 ft 379 kts 236°
2026-05-05 06:58 59.13070 14.86032 31884 ft 380 kts 237°
2026-05-05 06:58 59.09923 14.77696 31861 ft 381 kts 237°
2026-05-05 06:59 59.06799 14.69404 31855 ft 382 kts 237°
2026-05-05 06:59 59.03653 14.61057 31838 ft 382 kts 236°
2026-05-05 07:00 59.00506 14.52734 31863 ft 383 kts 236°
2026-05-05 07:00 58.97330 14.44362 31867 ft 384 kts 236°
2026-05-05 07:01 58.94171 14.36057 31867 ft 384 kts 236°
2026-05-05 07:01 58.91001 14.27770 31875 ft 383 kts 236°
2026-05-05 07:02 58.87809 14.19583 31875 ft 383 kts 236°
2026-05-05 07:02 58.84608 14.11385 31875 ft 383 kts 236°
2026-05-05 07:03 58.81409 14.03151 31858 ft 383 kts 236°
2026-05-05 07:03 58.78188 13.94875 31882 ft 386 kts 236°
2026-05-05 07:04 58.74984 13.86639 31880 ft 387 kts 236°
2026-05-05 07:04 58.71748 13.78346 31884 ft 386 kts 236°
2026-05-05 07:05 58.68519 13.70093 31828 ft 386 kts 236°
2026-05-05 07:05 58.65292 13.61901 31782 ft 386 kts 235°
2026-05-05 07:06 58.62007 13.53708 31727 ft 386 kts 235°
2026-05-05 07:06 58.58761 13.45564 31659 ft 386 kts 236°
2026-05-05 07:06 58.57146 13.41492 31930 ft 379 kts 236°
2026-05-05 07:07 58.55551 13.37472 31532 ft 378 kts 236°
2026-05-05 07:07 58.53963 13.33464 30845 ft 376 kts 236°
2026-05-05 07:07 58.52183 13.29698 30401 ft 388 kts 226°
2026-05-05 07:07 58.50071 13.26408 30157 ft 393 kts 223°
2026-05-05 07:08 58.47912 13.23264 29802 ft 396 kts 222°
2026-05-05 07:08 58.45704 13.20058 29463 ft 398 kts 222°
2026-05-05 07:08 58.43509 13.16850 29445 ft 394 kts 223°
2026-05-05 07:08 58.41340 13.13651 29141 ft 396 kts 223°
2026-05-05 07:09 58.39157 13.10379 28782 ft 399 kts 223°
2026-05-05 07:09 58.36982 13.07089 28591 ft 398 kts 224°
2026-05-05 07:09 58.34836 13.03824 28127 ft 402 kts 224°
2026-05-05 07:09 58.32641 13.00482 27744 ft 404 kts 223°
2026-05-05 07:10 58.30469 12.97195 27353 ft 391 kts 223°
2026-05-05 07:10 58.28367 12.94035 26928 ft 378 kts 223°
2026-05-05 07:10 58.26368 12.91042 26467 ft 361 kts 224°
2026-05-05 07:10 58.24409 12.88106 25721 ft 357 kts 224°
2026-05-05 07:11 58.22482 12.85208 25101 ft 348 kts 224°
2026-05-05 07:11 58.20578 12.82343 24157 ft 349 kts 224°
2026-05-05 07:11 58.18705 12.79535 23468 ft 345 kts 224°
2026-05-05 07:11 58.16824 12.76743 22642 ft 341 kts 224°
2026-05-05 07:12 58.14966 12.74002 21852 ft 336 kts 224°
2026-05-05 07:12 58.13132 12.71295 21057 ft 332 kts 224°
2026-05-05 07:12 58.11318 12.68615 20352 ft 328 kts 224°
2026-05-05 07:12 58.09527 12.65966 19646 ft 325 kts 224°
2026-05-05 07:13 58.07753 12.63342 18940 ft 322 kts 224°
2026-05-05 07:13 58.05998 12.60747 18277 ft 318 kts 224°
2026-05-05 07:13 58.04278 12.58204 17606 ft 316 kts 224°
2026-05-05 07:13 58.02557 12.55664 17026 ft 312 kts 224°
2026-05-05 07:14 58.00850 12.53148 16404 ft 310 kts 224°
2026-05-05 07:14 57.99162 12.50660 15808 ft 307 kts 224°
2026-05-05 07:14 57.98045 12.49013 15400 ft 305 kts 224°
2026-05-05 07:14 57.95835 12.45761 14648 ft 302 kts 224°
2026-05-05 07:15 57.94188 12.43340 14085 ft 299 kts 224°
2026-05-05 07:15 57.92554 12.40946 13475 ft 296 kts 224°
2026-05-05 07:15 57.90921 12.38553 12639 ft 298 kts 224°
2026-05-05 07:15 57.89839 12.36965 12198 ft 298 kts 224°
2026-05-05 07:16 57.88205 12.34571 11554 ft 298 kts 224°
2026-05-05 07:16 57.86577 12.32186 11000 ft 296 kts 223°
2026-05-05 07:16 57.84950 12.29810 10508 ft 296 kts 223°
2026-05-05 07:16 57.83314 12.27429 10031 ft 296 kts 223°
2026-05-05 07:17 57.81708 12.25094 9686 ft 295 kts 223°
2026-05-05 07:17 57.80085 12.22740 9417 ft 296 kts 223°
2026-05-05 07:17 57.78450 12.20373 9159 ft 298 kts 223°
2026-05-05 07:17 57.76807 12.18004 8937 ft 298 kts 223°
2026-05-05 07:18 57.75139 12.15674 8818 ft 301 kts 218°
2026-05-05 07:18 57.73287 12.13759 8620 ft 304 kts 212°
2026-05-05 07:18 57.71370 12.12058 8355 ft 305 kts 211°
2026-05-05 07:18 57.69453 12.10384 8087 ft 304 kts 211°
2026-05-05 07:19 57.67541 12.08709 7820 ft 303 kts 211°
2026-05-05 07:19 57.65679 12.07074 7566 ft 293 kts 211°
2026-05-05 07:19 57.63869 12.05480 7314 ft 282 kts 211°
2026-05-05 07:19 57.62129 12.03924 7033 ft 273 kts 211°
2026-05-05 07:20 57.60415 12.02473 6768 ft 267 kts 206°
2026-05-05 07:20 57.58670 12.01352 6392 ft 263 kts 203°
2026-05-05 07:20 57.56913 12.00349 5850 ft 264 kts 202°
2026-05-05 07:20 57.55176 11.99366 5343 ft 265 kts 202°
2026-05-05 07:21 57.53407 11.98356 4850 ft 264 kts 202°
2026-05-05 07:21 57.51658 11.97479 4586 ft 258 kts 190°
2026-05-05 07:21 57.49892 11.97931 4344 ft 259 kts 157°
2026-05-05 07:21 57.48390 11.99600 4170 ft 250 kts 147°
2026-05-05 07:22 57.47179 12.01820 4005 ft 242 kts 119°
2026-05-05 07:22 57.46743 12.04729 3892 ft 229 kts 84°
2026-05-05 07:22 57.47177 12.07435 3764 ft 213 kts 56°
2026-05-05 07:22 57.47925 12.09760 3673 ft 204 kts 53°
2026-05-05 07:23 57.48713 12.11779 3548 ft 188 kts 33°
2026-05-05 07:23 57.49794 12.12877 3415 ft 172 kts 21°
2026-05-05 07:23 57.50835 12.13958 3267 ft 168 kts 25°
2026-05-05 07:23 57.51849 12.14986 3091 ft 165 kts 21°
2026-05-05 07:24 57.52890 12.15906 3076 ft 170 kts 20°
2026-05-05 07:24 57.53961 12.16860 3046 ft 169 kts 21°
2026-05-05 07:24 57.55034 12.17811 2891 ft 171 kts 20°
2026-05-05 07:24 57.56093 12.18748 2626 ft 169 kts 21°
2026-05-05 07:25 57.57139 12.19712 2405 ft 166 kts 23°
2026-05-05 07:25 57.58163 12.20638 2140 ft 161 kts 21°
2026-05-05 07:25 57.59118 12.21505 1937 ft 148 kts 21°
2026-05-05 07:25 57.60033 12.22316 1716 ft 143 kts 21°
2026-05-05 07:26 57.60936 12.23114 1423 ft 146 kts 20°
2026-05-05 07:26 57.61868 12.23915 1216 ft 149 kts 22°
2026-05-05 07:26 57.62802 12.24786 1044 ft 147 kts 23°
2026-05-05 07:26 57.63692 12.25637 812 ft 143 kts 22°
2026-05-05 07:27 57.64582 12.26433 617 ft 140 kts 22°
2026-05-05 07:27 57.65430 12.27221 500 ft 129 kts 23°
2026-05-05 07:27 57.66098 12.27808 509 ft 81 kts 28°
2026-05-05 07:27 57.66433 12.28118 512 ft 33 kts 26°
2026-05-05 07:28 57.66620 12.28333 513 ft 31 kts 49°
2026-05-05 07:28 57.66722 12.28591 513 ft 19 kts 56°
2026-05-05 07:28 57.66786 12.28763 513 ft 15 kts 50°
2026-05-05 07:28 57.66876 12.28866 514 ft 15 kts 24°
2026-05-05 07:29 57.66973 12.28954 514 ft 16 kts 26°
2026-05-05 07:29 57.67037 12.29090 515 ft 15 kts 98°
2026-05-05 07:29 57.66996 12.29251 517 ft 14 kts 124°
2026-05-05 07:29 57.66950 12.29398 517 ft 10 kts 115°
2026-05-05 07:30 57.66939 12.29441 517 ft 2 kts 116°
2026-05-05 07:30 57.66935 12.29453 517 ft 0 kts 116°